Regional Weather Roundup
Issued by NWS

Home | Current Version | Previous Version | Graphics & Text | Print | Product List | Glossary On
Versions: 1 2 3 4 5 6 7 8 9 10 11 12 13 14 15 16 17 18 19 20 21 22 23 24 25 26 27 28 29 30 31 32 33 34 35 36 37 38 39 40 41 42 43 44 45 46 47 48 49 50
485
ASUS43 KLMK 292302
RWRKY
KENTUCKY REGIONAL WEATHER ROUNDUP
NATIONAL WEATHER SERVICE LOUISVILLE KY
700 PM EDT MON MAY 29 2017

NOTE "FAIR" INDICATES FEW OR NO CLOUDS BELOW 12,000 FEET
WITH NO SIGNIFICANT WEATHER AND/OR OBSTRUCTIONS TO VISIBILITY.

KYZ001>023-026-027-061>063-070>075-300000-
WESTERN AND SOUTH CENTRAL KENTUCKY

CITY           SKY/WX    TMP DP  RH WIND       PRES   REMARKS
PADUCAH        CLOUDY    82  53  36 W8        29.92F
HENDERSON      MOSUNNY   83  56  39 SW13      29.91F
OWENSBORO      CLOUDY    82  55  39 SW13      29.92F
HOPKINSVILLE   CLOUDY    80  61  52 SW8       29.95F
BOWLING GREEN  CLOUDY    80  62  54 SW10      29.95S
GLASGOW        NOT AVBL
$$

KYZ024-025-028>034-038-045-046-053-300000-
NORTH CENTRAL KENTUCKY

CITY           SKY/WX    TMP DP  RH WIND       PRES   REMARKS
LOUISVILLE/SDF CLOUDY    82  56  40 SW10      29.92S
LOUISVILLE/LOU MOSUNNY   82  54  37 SW8       29.93S
FORT KNOX      CLOUDY    80  57  46 S8        29.93S
$$

KYZ035>037-039>044-047>052-055>060-089>105-300000-
NORTHEAST KENTUCKY

CITY           SKY/WX    TMP DP  RH WIND       PRES   REMARKS
LEXINGTON      MOSUNNY   77  58  51 SW6       29.96S
COVINGTON      PTSUNNY   79  51  37 SW7       29.92R
FRANKFORT      CLOUDY    79  56  45 SW12      29.93S
$$

KYZ054-064>069-076>088-106>120-300000-
SOUTHEAST KENTUCKY

CITY           SKY/WX    TMP DP  RH WIND       PRES   REMARKS
JACKSON        CLOUDY    74  60  61 CALM      30.00S
LONDON         PTSUNNY   75  58  55 SW6       30.01R
SOMERSET       MOSUNNY   73  54  49 SW6       30.01S
MIDDLESBORO    MOSUNNY   75  64  68 S6        30.02R
MONTICELLO     CLOUDY    74  63  68 VRB3      30.01F
$$





USA.gov is the U.S. government's official web portal to all federal, state and local government web resources and services.